When you browse on this site, cookies collect data to enhance your experience and personalize the content and advertising you see.
Visit our Privacy Policy to learn more. By continuing to use the site, you agree to this use of cookies and data.
  • In Schweiz
  • Länderverzeichnis
  • Für 7 Tage
  • Wassertemperatur
  • Satellitenkarten
  • Wetterkarte
  • Widgets
  • user-avatar
    Anmelden

    Stündliche Wetter Nizhnie Balmazy

    Heute, 25 Juni, Dienstag

    Zeit Temperatur Niederschläge Wind Luftdruck Luftfeuchtigkeit
    00:00 +18°C° 0.1 mm 2 m/S 746 mmHg 87%
    01:00 +17°C° 0.1 mm 3 m/S 746 mmHg 91%
    02:00 +17°C° 0.2 mm 2 m/S 746 mmHg 92%
    03:00 +16°C° 0.2 mm 1 m/S 745 mmHg 93%
    04:00 +16°C° 0 mm 1 m/S 745 mmHg 93%
    05:00 +18°C° 0.2 mm 1 m/S 746 mmHg 92%
    06:00 +19°C° 0.2 mm 1 m/S 746 mmHg 90%
    07:00 +19°C° 0.2 mm 1 m/S 746 mmHg 89%
    08:00 +20°C° 0.3 mm 1 m/S 746 mmHg 83%
    09:00 +20°C° 0.3 mm 2 m/S 746 mmHg 77%
    10:00 +21°C° 0.3 mm 3 m/S 746 mmHg 71%
    11:00 +21°C° 0.3 mm 4 m/S 746 mmHg 66%
    12:00 +21°C° 0.3 mm 4 m/S 746 mmHg 61%
    13:00 +22°C° 0.3 mm 4 m/S 746 mmHg 56%
    14:00 +21°C° 0.2 mm 4 m/S 746 mmHg 58%
    15:00 +21°C° 0.2 mm 4 m/S 746 mmHg 59%
    16:00 +21°C° 0.2 mm 4 m/S 747 mmHg 61%
    17:00 +20°C° 0.1 mm 4 m/S 747 mmHg 65%
    18:00 +19°C° 0.1 mm 3 m/S 747 mmHg 68%
    19:00 +18°C° 0.1 mm 2 m/S 747 mmHg 72%
    20:00 +16°C° 0 mm 2 m/S 747 mmHg 80%
    21:00 +15°C° 0 mm 2 m/S 747 mmHg 87%
    22:00 +13°C° 0 mm 2 m/S 747 mmHg 94%
    23:00 +12°C° 0 mm 1 m/S 747 mmHg 95%

    Morgen, 26 Juni, Mittwoch

    Zeit Temperatur Niederschläge Wind Luftdruck Luftfeuchtigkeit
    00:00 +11°C° 0 mm 1 m/S 747 mmHg 95%
    01:00 +11°C° 0 mm 1 m/S 747 mmHg 96%
    02:00 +10°C° 0 mm 1 m/S 747 mmHg 96%
    03:00 +10°C° 0 mm 1 m/S 747 mmHg 96%
    04:00 +9°C° 0 mm 0 m/S 748 mmHg 96%
    05:00 +11°C° 0 mm 1 m/S 747 mmHg 91%
    06:00 +13°C° 0 mm 1 m/S 747 mmHg 86%
    07:00 +14°C° 0 mm 1 m/S 747 mmHg 81%
    08:00 +16°C° 0 mm 2 m/S 747 mmHg 73%
    09:00 +17°C° 0 mm 2 m/S 747 mmHg 65%
    10:00 +19°C° 0 mm 2 m/S 747 mmHg 57%
    11:00 +19°C° 0.3 mm 2 m/S 747 mmHg 59%
    12:00 +19°C° 0.3 mm 2 m/S 746 mmHg 61%
    13:00 +19°C° 0.3 mm 2 m/S 746 mmHg 64%
    14:00 +19°C° 0.9 mm 2 m/S 746 mmHg 69%
    15:00 +18°C° 0.9 mm 2 m/S 746 mmHg 74%
    16:00 +18°C° 0.9 mm 2 m/S 746 mmHg 79%
    17:00 +17°C° 0.4 mm 2 m/S 745 mmHg 83%
    18:00 +17°C° 0.4 mm 2 m/S 745 mmHg 86%
    19:00 +16°C° 0.4 mm 2 m/S 745 mmHg 90%
    20:00 +15°C° 0.2 mm 2 m/S 745 mmHg 91%
    21:00 +13°C° 0.2 mm 1 m/S 745 mmHg 93%
    22:00 +12°C° 0.2 mm 1 m/S 745 mmHg 94%
    23:00 +12°C° 0.1 mm 1 m/S 745 mmHg 95%

    übermorgen, 27 Juni, Donnerstag

    Zeit Temperatur Niederschläge Wind Luftdruck Luftfeuchtigkeit
    00:00 +11°C° 0.1 mm 1 m/S 745 mmHg 95%
    01:00 +11°C° 0.1 mm 1 m/S 745 mmHg 96%
    02:00 +11°C° 0.1 mm 1 m/S 745 mmHg 96%
    03:00 +11°C° 0.1 mm 1 m/S 745 mmHg 96%
    04:00 +10°C° 0.1 mm 1 m/S 745 mmHg 97%
    05:00 +11°C° 0.2 mm 1 m/S 745 mmHg 95%
    06:00 +12°C° 0.2 mm 2 m/S 745 mmHg 94%
    07:00 +13°C° 0.2 mm 2 m/S 745 mmHg 93%
    08:00 +14°C° 0.6 mm 2 m/S 745 mmHg 91%
    09:00 +14°C° 0.6 mm 3 m/S 745 mmHg 90%
    10:00 +16°C° 0.6 mm 3 m/S 745 mmHg 88%
    11:00 +15°C° 0.5 mm 4 m/S 744 mmHg 82%
    12:00 +17°C° 0.5 mm 4 m/S 744 mmHg 75%
    13:00 +17°C° 0.5 mm 4 m/S 744 mmHg 69%
    14:00 +18°C° 0.1 mm 4 m/S 744 mmHg 65%
    15:00 +18°C° 0.1 mm 4 m/S 744 mmHg 62%
    16:00 +18°C° 0.1 mm 4 m/S 744 mmHg 58%
    17:00 +18°C° 0 mm 3 m/S 744 mmHg 62%
    18:00 +17°C° 0 mm 3 m/S 744 mmHg 65%
    19:00 +16°C° 0 mm 2 m/S 744 mmHg 68%
    20:00 +14°C° 0 mm 2 m/S 744 mmHg 74%
    21:00 +13°C° 0 mm 2 m/S 744 mmHg 81%
    22:00 +10°C° 0 mm 2 m/S 744 mmHg 87%
    23:00 +9°C° 0 mm 2 m/S 744 mmHg 88%

    28 Juni, Freitag

    Zeit Temperatur Niederschläge Wind Luftdruck Luftfeuchtigkeit
    00:00 +9°C° 0 mm 2 m/S 744 mmHg 88%
    01:00 +8°C° 0 mm 3 m/S 744 mmHg 88%
    02:00 +8°C° 0 mm 3 m/S 744 mmHg 88%
    03:00 +8°C° 0 mm 3 m/S 744 mmHg 87%
    04:00 +8°C° 0 mm 3 m/S 744 mmHg 86%
    05:00 +10°C° 0 mm 3 m/S 744 mmHg 80%
    06:00 +12°C° 0 mm 4 m/S 744 mmHg 74%
    07:00 +14°C° 0 mm 4 m/S 744 mmHg 68%
    08:00 +15°C° 0 mm 4 m/S 744 mmHg 62%
    09:00 +18°C° 0 mm 4 m/S 744 mmHg 57%
    10:00 +19°C° 0 mm 4 m/S 744 mmHg 52%
    11:00 +20°C° 0 mm 4 m/S 744 mmHg 50%
    12:00 +21°C° 0 mm 4 m/S 743 mmHg 49%
    13:00 +21°C° 0 mm 3 m/S 743 mmHg 48%
    14:00 +21°C° 0 mm 3 m/S 743 mmHg 49%
    15:00 +21°C° 0 mm 3 m/S 743 mmHg 50%
    16:00 +21°C° 0 mm 3 m/S 743 mmHg 51%
    17:00 +21°C° 0 mm 3 m/S 743 mmHg 56%
    18:00 +20°C° 0 mm 2 m/S 743 mmHg 61%
    19:00 +19°C° 0 mm 2 m/S 743 mmHg 66%
    20:00 +18°C° 0 mm 3 m/S 743 mmHg 65%
    21:00 +18°C° 0 mm 3 m/S 743 mmHg 64%
    22:00 +17°C° 0 mm 4 m/S 743 mmHg 63%
    23:00 +17°C° 0 mm 4 m/S 743 mmHg 64%

    29 Juni, Samstag

    Zeit Temperatur Niederschläge Wind Luftdruck Luftfeuchtigkeit
    00:00 +15°C° 0 mm 4 m/S 743 mmHg 66%
    01:00 +14°C° 0 mm 4 m/S 742 mmHg 67%
    02:00 +14°C° 0 mm 4 m/S 742 mmHg 68%
    03:00 +14°C° 0 mm 4 m/S 742 mmHg 70%
    04:00 +13°C° 0 mm 3 m/S 742 mmHg 71%
    05:00 +14°C° 0 mm 3 m/S 742 mmHg 69%
    06:00 +16°C° 0 mm 3 m/S 742 mmHg 68%
    07:00 +16°C° 0 mm 3 m/S 742 mmHg 66%
    08:00 +17°C° 0 mm 4 m/S 742 mmHg 66%
    09:00 +17°C° 0 mm 4 m/S 742 mmHg 67%
    10:00 +17°C° 0 mm 4 m/S 742 mmHg 68%
    11:00 +19°C° 0 mm 3 m/S 742 mmHg 66%
    12:00 +20°C° 0 mm 3 m/S 742 mmHg 65%
    13:00 +21°C° 0 mm 2 m/S 742 mmHg 63%
    14:00 +22°C° 0 mm 3 m/S 742 mmHg 62%
    15:00 +24°C° 0 mm 3 m/S 742 mmHg 61%
    16:00 +25°C° 0 mm 3 m/S 742 mmHg 60%
    17:00 +24°C° 0.1 mm 3 m/S 742 mmHg 68%
    18:00 +23°C° 0.1 mm 2 m/S 741 mmHg 75%
    19:00 +21°C° 0.1 mm 2 m/S 741 mmHg 83%
    20:00 +20°C° 0.9 mm 2 m/S 741 mmHg 87%
    21:00 +19°C° 0.9 mm 2 m/S 741 mmHg 91%
    22:00 +18°C° 0.9 mm 3 m/S 741 mmHg 94%
    23:00 +18°C° 0.1 mm 3 m/S 741 mmHg 92%

    30 Juni, Sonntag

    Zeit Temperatur Niederschläge Wind Luftdruck Luftfeuchtigkeit
    00:00 +18°C° 0.1 mm 2 m/S 741 mmHg 90%
    01:00 +17°C° 0.1 mm 2 m/S 741 mmHg 88%
    02:00 +17°C° 0 mm 2 m/S 741 mmHg 86%
    03:00 +17°C° 0 mm 2 m/S 741 mmHg 85%
    04:00 +17°C° 0 mm 2 m/S 742 mmHg 83%
    05:00 +18°C° 0 mm 2 m/S 742 mmHg 81%
    06:00 +18°C° 0 mm 3 m/S 742 mmHg 79%
    07:00 +19°C° 0 mm 3 m/S 742 mmHg 77%
    08:00 +20°C° 0 mm 3 m/S 742 mmHg 71%
    09:00 +21°C° 0 mm 3 m/S 742 mmHg 65%
    10:00 +24°C° 0 mm 3 m/S 742 mmHg 59%
    11:00 +24°C° 0 mm 3 m/S 743 mmHg 58%
    12:00 +24°C° 0 mm 2 m/S 743 mmHg 56%
    13:00 +25°C° 0 mm 2 m/S 743 mmHg 54%
    14:00 +24°C° 0 mm 2 m/S 743 mmHg 57%
    15:00 +24°C° 0 mm 3 m/S 743 mmHg 60%
    16:00 +22°C° 0 mm 3 m/S 743 mmHg 62%
    17:00 +21°C° 0.1 mm 2 m/S 743 mmHg 68%
    18:00 +20°C° 0.1 mm 2 m/S 743 mmHg 73%
    19:00 +20°C° 0.1 mm 1 m/S 743 mmHg 78%
    20:00 +20°C° 0 mm 1 m/S 743 mmHg 78%
    21:00 +20°C° 0 mm 1 m/S 744 mmHg 78%
    22:00 +19°C° 0 mm 1 m/S 744 mmHg 78%
    23:00 +19°C° 0 mm 1 m/S 744 mmHg 81%
    Mehr zeigen